Tracking 27380 objects as of 6-Jun-2023
HD Live streaming from Space Station
objects crossing your sky now

BRAZILSAT B2

Track BRAZILSAT B2 now!
BRAZILSAT B2 is classified as:


NORAD ID: 23536
Int'l Code: 1995-016A
Perigee: 36,069.6 km
Apogee: 36,104.2 km
Inclination: 10.3 °
Period: 1,451.1 minutes
Semi major axis: 42457 km
RCS: 7.5458 m2 (large)
Launch date: March 28, 1995
Source: Brazil (BRAZ)
Launch site: FRENCH GUIANA (FRGUI)

24 C-band; several X-band.
Your satellite tracking list
Your tracking list is empty




NASA's NSSDC Master Catalog

Two Line Element Set (TLE):
1 23536U 95016A   23156.73244139  .00000089  00000-0  00000-0 0  9997
2 23536  10.3358  39.1936 0004078  69.1970 107.4291  0.99234996103103
Source of the keplerian elements: AFSPC